Regional Weather Roundup
Issued by NWS Tiyan, Guam

Home | Current Version | Previous Version | Text Only | Print | Product List | Glossary On
Versions: 1 2 3 4 5 6 7 8 9 10 11 12 13 14 15 16 17 18 19 20 21 22 23 24 25 26 27 28 29 30 31 32 33 34 35 36 37 38 39 40 41 42 43 44 45 46 47 48 49
000
ASGM40 PGUM 290312
RWRGUM
WEATHER ROUNDUP FOR THE MARIANAS
NATIONAL WEATHER SERVICE TIYAN GU
100 PM CHST FRI AUG 29 2014

GUZ001>004-290400-
MARIANA ISLANDS-

CITY           SKY/WX    TMP DP  RH WIND       PRES   REMARKS
GUAM AIRPORT   MOSUNNY   88  79  74 E10G17    29.80F HX 102
ANDERSEN AFB   MOSUNNY   82  77  83 E12       29.81F HX  91
ROTA AIRPORT   MOSUNNY   86  79  79 E13       29.81F HX  99
TINIAN AP      PTSUNNY   84  79  84 E15       29.79F HX  96
SAIPAN AP      MOSUNNY   88  79  74 E14       29.80F HX 102

$$



USA.gov is the U.S. government's official web portal to all federal, state and local government web resources and services.